Cedar Bluff, VA

5:10 AM EDT on August 26, 2016 (GMT -0400)
Tazewell County

Weather History for KJFZ - March, 2013

Change the Weather History Date:

Friday, March 15, 2013

  Actual Average (KBLF) Record (KBLF)
Temperature  
Mean Temperature 42 °F 45 °F  
Max Temperature 54 °F 54 °F 76 °F (1977)
Min Temperature 29 °F 36 °F 6 °F (1993)
Degree Days  
Heating Degree Days 24 20  
Month to date heating degree days 335  
Since 1 July heating degree days 3828  
Cooling Degree Days 0 0  
Month to date cooling degree days 0  
Year to date cooling degree days 0  
Moisture  
Dew Point 26 °F    
Average Humidity 53    
Maximum Humidity 67    
Minimum Humidity 46    
Precipitation  
Precipitation 0.00 in 0.12 in 1.05 in (1999)
Month to date precipitation 1.67  
Year to date precipitation 7.33  
Snow  
Snow 0.00 in - - ()
Month to date snowfall  
Since 1 July snowfall  
Snow Depth -    
Sea Level Pressure  
Sea Level Pressure 30.01 in    
Wind  
Wind Speed 7 mph (WSW)    
Max Wind Speed 14 mph    
Max Gust Speed 23 mph    
Visibility 10 miles    
Events      
T = Trace of Precipitation, MM = Missing Value Source: NWS Daily Summary

Daily Weather History Graph

Daily Weather History Graph

Search for Another Location

Airport or City:

Trip Planner

Search our weather history database for the weather conditions in past years. The results will help you decide how hot, cold, wet, or windy it might be!

Date:

Astronomy

Mar. 15, 2013 Rise Set
Actual Time 7:37 AM EDT 7:34 PM EDT
Civil Twilight 7:11 AM EDT 8:00 PM EDT
Nautical Twilight 6:41 AM EDT 8:30 PM EDT
Astronomical Twilight 6:11 AM EDT 9:01 PM EDT
Moon 9:33 AM EDT (3/15) 11:40 PM EDT (3/15)
Length of Visible Light 12h 48m
Length of Day
11h 56m
Waxing Crescent, 15% of the Moon is Illuminated
Mar 15
Waxing Crescent
Mar 19
First Quarter
Mar 27
Full
Apr 3
Last Quarter
Apr 10
New

Hourly Weather History & Observations

Time (EDT) Temp. Windchill Dew Point Humidity Pressure Visibility Wind Dir Wind Speed Gust Speed Precip Events Conditions
12:15 AM 32.0 °F 27.5 °F 13.1 °F 46% 30.15 in 10.0 mi NW 4.6 mph - N/A   Clear
12:35 AM 30.0 °F 25.2 °F 14.0 °F 51% 30.16 in 10.0 mi WNW 4.6 mph - N/A   Clear
12:55 AM 31.5 °F 25.8 °F 13.3 °F 47% 30.16 in 10.0 mi WNW 5.8 mph - N/A   Clear
1:15 AM 31.1 °F 25.4 °F 13.6 °F 48% 30.15 in 10.0 mi West 5.8 mph - N/A   Clear
1:35 AM 30.9 °F 25.2 °F 13.8 °F 49% 30.14 in 10.0 mi West 5.8 mph - N/A   Clear
1:55 AM 31.3 °F 25.6 °F 13.5 °F 48% 30.13 in 10.0 mi West 5.8 mph - N/A   Clear
2:15 AM 30.9 °F 26.2 °F 13.6 °F 49% 30.12 in 10.0 mi SW 4.6 mph - N/A   Clear
2:35 AM 30.7 °F 24.9 °F 13.8 °F 50% 30.11 in 10.0 mi WSW 5.8 mph - N/A   Clear
2:55 AM 30.4 °F 22.9 °F 14.4 °F 51% 30.12 in 10.0 mi West 8.1 mph - N/A   Clear
3:15 AM 30.6 °F 24.7 °F 14.4 °F 51% 30.12 in 10.0 mi West 5.8 mph - N/A   Clear
3:35 AM 29.5 °F 23.4 °F 14.9 °F 55% 30.12 in 10.0 mi WSW 5.8 mph - N/A   Scattered Clouds
3:55 AM 30.0 °F 24.1 °F 14.9 °F 53% 30.12 in 10.0 mi West 5.8 mph - N/A   Mostly Cloudy
4:15 AM 30.7 °F 24.9 °F 14.5 °F 51% 30.11 in 10.0 mi WSW 5.8 mph - N/A   Overcast
4:35 AM 30.4 °F 26.9 °F 14.4 °F 51% 30.10 in 10.0 mi SW 3.5 mph - N/A   Scattered Clouds
4:55 AM 30.6 °F 25.8 °F 14.4 °F 51% 30.08 in 10.0 mi SSW 4.6 mph - N/A   Clear
5:15 AM 30.0 °F 25.2 °F 14.4 °F 52% 30.08 in 10.0 mi SW 4.6 mph - N/A   Clear
5:35 AM 29.8 °F 23.9 °F 14.4 °F 53% 30.08 in 10.0 mi WSW 5.8 mph - N/A   Clear
5:55 AM 30.2 °F 22.6 °F 15.3 °F 54% 30.10 in 10.0 mi WSW 8.1 mph - N/A   Mostly Cloudy
6:15 AM 31.1 °F 23.1 °F 15.6 °F 53% 30.10 in 10.0 mi SW 9.2 mph - N/A   Overcast
6:35 AM 31.3 °F 23.9 °F 17.1 °F 56% 30.10 in 10.0 mi WSW 8.1 mph - N/A   Overcast
6:55 AM 31.8 °F 27.3 °F 18.9 °F 59% 30.10 in 10.0 mi WSW 4.6 mph - N/A   Overcast
7:15 AM 31.8 °F 26.2 °F 19.4 °F 60% 30.09 in 10.0 mi WSW 5.8 mph - N/A   Overcast
7:35 AM 32.0 °F 24.8 °F 19.9 °F 61% 30.08 in 10.0 mi WSW 8.1 mph - N/A   Overcast
7:55 AM 31.8 °F 24.6 °F 20.8 °F 64% 30.08 in 10.0 mi WSW 8.1 mph - N/A   Overcast
8:15 AM 32.0 °F 24.2 °F 22.1 °F 67% 30.08 in 10.0 mi WSW 9.2 mph - N/A   Overcast
8:35 AM 32.4 °F 26.0 °F 22.6 °F 67% 30.08 in 10.0 mi WSW 6.9 mph - N/A   Overcast
8:55 AM 32.9 °F 29.8 °F 23.0 °F 67% 30.08 in 10.0 mi WSW 3.5 mph - N/A   Scattered Clouds
9:15 AM 34.2 °F 28.2 °F 23.7 °F 66% 30.07 in 10.0 mi WSW 6.9 mph - N/A   Clear
9:35 AM 34.3 °F 29.2 °F 23.5 °F 65% 30.07 in 10.0 mi WSW 5.8 mph - N/A   Clear
9:55 AM 35.2 °F 30.3 °F 23.9 °F 63% 30.07 in 10.0 mi West 5.8 mph - N/A   Clear
10:15 AM 37.9 °F 34.4 °F 25.9 °F 62% 30.06 in 10.0 mi West 4.6 mph - N/A   Clear
10:35 AM 39.6 °F 33.5 °F 27.0 °F 61% 30.06 in 10.0 mi WSW 9.2 mph 16.1 mph N/A   Clear
10:55 AM 41.5 °F 34.6 °F 28.4 °F 60% 30.05 in 10.0 mi WSW 12.7 mph 18.4 mph N/A   Clear
11:55 AM 44.8 °F 41.6 °F 30.7 °F 58% 30.04 in 10.0 mi West 5.8 mph - N/A   Clear
12:15 PM 46.6 °F - 31.8 °F 56% 30.03 in 10.0 mi West 10.4 mph 16.1 mph N/A   Clear
12:35 PM 47.7 °F - 31.8 °F 54% 30.01 in 10.0 mi SSW 11.5 mph 16.1 mph N/A   Clear
12:55 PM 48.4 °F - 31.8 °F 53% 30.01 in 10.0 mi SW 9.2 mph 20.7 mph N/A   Clear
1:15 PM 49.1 °F - 31.8 °F 51% 30.00 in 10.0 mi West 9.2 mph 17.3 mph N/A   Clear
1:35 PM 50.0 °F - 32.2 °F 50% 29.99 in 10.0 mi West 12.7 mph 16.1 mph N/A   Clear
1:55 PM 50.4 °F - 32.4 °F 50% 29.98 in 10.0 mi SSW 10.4 mph 18.4 mph N/A   Clear
2:15 PM 50.9 °F - 32.2 °F 49% 29.97 in 10.0 mi SSW 10.4 mph 17.3 mph N/A   Clear
2:35 PM 50.7 °F - 32.2 °F 49% 29.95 in 10.0 mi SSW 9.2 mph 16.1 mph N/A   Clear
2:55 PM 51.1 °F - 32.2 °F 48% 29.95 in 10.0 mi SW 10.4 mph 16.1 mph N/A   Clear
3:15 PM 51.8 °F - 32.9 °F 49% 29.95 in 10.0 mi West 13.8 mph 21.9 mph N/A   Clear
3:35 PM 51.8 °F - 32.9 °F 49% 29.94 in 10.0 mi WSW 10.4 mph 23.0 mph N/A   Clear
3:55 PM 53.4 °F - 33.8 °F 47% 29.93 in 10.0 mi SW 12.7 mph - N/A   Clear
4:15 PM 53.4 °F - 33.8 °F 47% 29.93 in 10.0 mi WSW 9.2 mph 16.1 mph N/A   Clear
4:35 PM 54.1 °F - 33.6 °F 46% 29.93 in 10.0 mi WSW 10.4 mph - N/A   Clear
4:55 PM 53.4 °F - 33.1 °F 46% 29.93 in 10.0 mi WSW 9.2 mph - N/A   Clear
5:15 PM 53.1 °F - 32.9 °F 46% 29.92 in 10.0 mi WSW 8.1 mph 20.7 mph N/A   Clear
5:35 PM 52.9 °F - 32.7 °F 46% 29.92 in 10.0 mi SSW 12.7 mph 17.3 mph N/A   Clear
5:55 PM 52.9 °F - 32.9 °F 47% 29.92 in 10.0 mi WSW 12.7 mph 18.4 mph N/A   Clear
6:15 PM 52.9 °F - 32.9 °F 47% 29.92 in 10.0 mi SW 5.8 mph 17.3 mph N/A   Clear
6:35 PM 53.1 °F - 32.5 °F 46% 29.92 in 10.0 mi SW 8.1 mph - N/A   Clear
6:55 PM 52.9 °F - 32.9 °F 47% 29.92 in 10.0 mi SW 11.5 mph - N/A   Clear
7:15 PM 52.3 °F - 32.5 °F 47% 29.91 in 10.0 mi SW 6.9 mph 10.4 mph N/A   Clear
7:35 PM 51.8 °F - 32.4 °F 48% 29.91 in 10.0 mi SW 8.1 mph - N/A   Clear
7:55 PM 51.6 °F - 32.4 °F 48% 29.91 in 10.0 mi SSW 10.4 mph - N/A   Clear
8:15 PM 51.3 °F - 32.4 °F 48% 29.92 in 10.0 mi WSW 9.2 mph - N/A   Clear
8:35 PM 51.3 °F - 32.4 °F 48% 29.92 in 10.0 mi SW 8.1 mph - N/A   Clear
8:55 PM 51.1 °F - 32.5 °F 49% 29.92 in 10.0 mi SW 12.7 mph - N/A   Clear
9:15 PM 51.8 °F - 33.8 °F 50% 29.92 in 10.0 mi WSW 10.4 mph 20.7 mph N/A   Clear
9:35 PM 51.4 °F - 34.0 °F 51% 29.91 in 10.0 mi SW 13.8 mph 17.3 mph N/A   Clear
9:55 PM 51.1 °F - 34.3 °F 53% 29.91 in 10.0 mi WSW 10.4 mph 16.1 mph N/A   Clear
10:15 PM 50.9 °F - 34.7 °F 54% 29.91 in 10.0 mi WSW 11.5 mph 17.3 mph N/A   Clear
10:35 PM 50.9 °F - 34.7 °F 54% 29.91 in 10.0 mi WSW 8.1 mph - N/A   Clear
10:55 PM 50.9 °F - 35.1 °F 55% 29.91 in 10.0 mi WSW 10.4 mph - N/A   Clear
11:15 PM 50.2 °F - 35.2 °F 57% 29.91 in 10.0 mi WSW 9.2 mph - N/A   Clear
11:35 PM 50.4 °F - 35.1 °F 56% 29.90 in 10.0 mi WSW 9.2 mph - N/A   Clear
11:55 PM 50.9 °F - 35.6 °F 56% 29.89 in 10.0 mi WSW 8.1 mph - N/A   Clear